ATLAS 5 CENTAUR DEB, 44848

Orbit data source: Space-Track

ATLAS 5 CENTAUR DEB, 44848 is space debris in HEO originally from a launch on Wed, 17 Sep 2014 UTC launched from the Air Force Eastern Test Range (AFETR). Debris objects in space refer to the collection of defunct objects orbiting the Earth. Examples of debris include non-operational satellites, rocket bodies, and fragments generated from explosions, collisions, or faulty payload assembly.

Loading next visibility...
Identifier
44848, 2014-055CG
Orbit
HEO
Country
Flag of USUS
Related business
Flag of USUnited Launch Alliance/Lockheed Martin (US)
Manufacturer
Unknown
Mission
Spacecraft
Bus & Motor
Unknown
Mass
Unknown
Launch date (UTC)
2014-09-17 (11 years ago)
Launch vehicle
Unknown
Launch site
Air Force Eastern Test Range (AFETR)
Object type
Payload
Rocket body
Debris
Shape & HBR
Unknown shape, 1.1 m
Radar Cross Section
RCS unknown

Expand to show TLE details & history
Last TLE update: 5 days ago

TLE from 5 days ago
0 ATLAS 5 CENTAUR DEB
1 44848U 14055CG  25282.49943687 -.00000031  00000-0  00000-0 0  9997
2 44848  20.3055 143.3632 4992722 165.5913 216.6467  1.88593784 42531
Epoch: 2025-10-09T11:59Z
TLE epoch observation values (Epoch: 2025-10-09T11:59:11.345Z)
Latitude
-0.00001°
Longitude
-54.74584°
Altitude
33,836.408 km
Speed
2.328 km/s
True Right ascension
09h 33m 38s
True Declination
0° 00' 00"
Sunlit
Object was in daylight at epoch
Visualization orbit readout
Latitude
Unknown
Longitude
Unknown
Altitude
Unknown
Speed
Unknown
Apparent Right ascension
Unknown
Apparent Declination
Unknown
Sunlit
N/A
Visualization observer readout
Local Sidereal Time
09:01:25
Azimuth
Unknown
Elevation
Unknown
Doppler factor
Unknown
Orbital elements
Apogee altitude
35,113.682 km
Perigee altitude
7,479.325 km
Semi-major axis
27,674.64 km
Eccentricity
0.49927
Inclination
20.3055°
RAAN
143.3632°
Arg. of periapsis
165.5913°
True anomaly
194.42017°
Mean anomaly
216.6467°
Eccentric anomaly
204.69526°
Mean motion
0.47143 °/min
Orbital period
763.63 mins
BSTAR
0
Loading maneuver chart data...
Computing Atmospheric mass density...

Documentation

Showing up to 5 results
|